GFSCGP_prec_cthk_297.txt.gz
RH
14 14 15 13 14 13 12 13 14 14 16 17 16 13 10 9 9 8 8 8 7 6 6 6 6 7 7 7 6 6 5 5 7 6 5 5 5 6 7 8 9 10 11 13
14 15 14 13 12 12 11 13 14 14 16 17 16 13 9 9 7 7 7 7 7 7 6 6 6 6 6 6 6 6 5 5 6 7 5 5 5 6 7 8 9 10 12 13
15 14 13 13 11 10 11 11 12 13 14 14 16 14 11 9 8 7 6 6 7 6 7 6 5 5 6 6 6 6 6 5 6 7 6 4 5 6 7 8 9 10 12 13
15 14 13 13 12 11 11 11 12 12 14 14 15 14 12 13 11 8 6 6 6 6 6 6 5 5 5 5 6 7 6 5 5 6 7 5 5 6 7 8 9 10 12 13
14 14 14 14 14 13 12 11 11 13 16 18 17 19 14 13 13 12 9 7 5 5 5 5 5 4 5 5 6 6 6 6 5 6 7 6 5 6 7 8 9 10 12 14
16 15 15 15 14 13 13 13 16 20 21 19 17 18 19 13 13 13 11 9 8 8 8 8 7 6 6 6 6 7 7 6 6 6 6 7 6 6 8 9 9 10 12 14
17 17 16 16 16 16 15 17 18 17 30 18 20 21 18 14 13 13 12 11 10 10 9 9 9 8 8 7 8 8 7 7 6 6 6 8 8 7 8 9 10 10 12 14
19 17 17 16 15 17 17 17 20 14 20 21 16 17 11 10 11 11 11 11 10 11 12 12 11 10 9 9 8 8 8 8 7 7 7 8 10 8 8 9 10 11 12 14
19 19 17 17 15 15 18 17 18 20 24 29 20 15 12 11 12 12 11 10 11 12 12 13 14 13 13 11 9 9 8 8 8 7 7 8 10 11 9 10 11 12 13 14
19 19 18 17 16 17 17 18 20 23 20 20 20 20 18 12 11 11 11 11 12 13 13 13 14 15 14 13 12 10 9 9 9 8 8 8 9 11 11 11 12 13 14 15
21 21 20 20 19 18 18 18 20 23 29 26 23 17 15 14 13 12 13 13 12 13 13 14 14 14 15 14 14 13 10 9 10 9 9 9 9 11 12 11 12 14 15 16
23 23 23 21 21 20 19 19 20 30 19 30 38 26 12 14 15 15 15 16 15 15 14 14 14 13 13 14 14 14 13 10 9 10 9 9 9 11 12 12 12 14 16 17
24 26 27 24 24 23 22 22 22 28 33 31 33 21 13 15 15 16 16 17 17 17 18 17 16 14 14 13 13 14 15 13 10 10 11 10 10 10 12 13 13 14 16 17
26 28 28 31 25 27 24 23 24 26 39 30 32 18 16 14 16 16 16 17 17 16 16 17 17 16 15 14 14 14 14 15 13 10 11 11 10 10 12 13 14 15 16 17
30 30 30 29 29 29 27 25 27 28 24 25 18 22 18 14 15 15 15 16 16 16 15 16 17 19 17 16 15 15 14 15 14 13 12 11 11 11 11 13 15 15 16 17
33 33 33 32 31 33 32 28 28 26 24 24 21 19 16 15 14 15 16 17 17 16 16 15 15 17 19 17 16 15 14 14 14 13 13 12 13 12 12 13 15 17 16 17
36 37 39 39 35 36 37 28 27 27 25 22 24 18 16 16 16 17 17 17 17 17 17 16 16 15 17 18 17 16 15 14 13 13 13 13 13 13 13 13 14 16 17 17
39 40 46 47 40 46 31 29 28 29 24 24 23 20 18 18 18 17 17 17 17 18 18 17 17 17 17 18 19 18 17 16 15 14 13 13 13 13 15 15 14 15 18 18
41 45 51 51 48 38 34 31 32 32 27 23 23 20 19 19 19 18 17 17 17 19 19 19 19 19 18 20 19 20 19 17 16 15 13 12 13 13 13 15 15 14 17 18
48 49 52 58 55 50 34 31 31 29 30 24 24 23 22 21 23 22 19 20 21 21 21 22 23 23 22 21 21 21 23 23 20 18 16 14 13 13 13 13 15 15 15 17
54 59 56 54 57 44 35 34 32 35 29 25 24 23 23 24 22 22 23 23 23 24 25 25 24 25 25 25 26 26 23 23 25 26 22 19 16 14 14 13 14 15 15 15
50 58 61 61 64 50 36 37 37 31 29 28 27 27 26 24 25 27 27 27 25 25 25 26 27 28 28 28 28 28 28 27 26 26 27 26 24 20 17 16 15 15 16 16
50 47 53 50 46 39 37 35 35 33 31 30 30 30 30 30 30 31 31 30 28 28 28 28 29 29 30 29 28 28 29 29 29 30 29 28 30 27 24 18 17 16 16 17
47 47 47 47 40 42 39 39 39 36 34 33 33 33 33 35 36 38 37 36 35 34 32 30 30 29 29 31 30 28 28 30 30 30 31 32 30 32 30 25 24 20 18 17
47 49 47 46 44 44 43 43 43 40 38 37 37 36 36 37 39 41 42 43 43 40 39 39 36 33 31 30 30 29 29 29 29 30 30 32 33 32 31 33 29 28 26 21
46 48 51 45 50 49 44 46 46 45 46 43 41 41 41 41 43 46 49 51 49 47 46 43 41 37 32 29 27 27 25 25 24 25 28 30 32 33 34 33 33 33 31 29

GFSCGP_prec_cthk_300.txt.gz
RH
14 14 14 13 14 13 12 12 14 14 15 17 18 14 10 9 8 8 7 7 7 6 6 6 6 6 6 6 6 5 5 4 4 5 5 4 4 5 6 7 8 9 10 11
14 14 14 13 12 11 11 11 13 12 14 16 15 14 12 11 8 7 6 6 6 6 6 6 6 6 6 6 6 6 5 5 4 4 5 5 4 5 6 7 8 9 11 12
15 14 13 13 13 11 11 11 11 12 12 13 15 13 11 12 11 9 7 6 6 6 6 6 5 4 5 5 5 5 5 5 5 4 5 6 5 5 6 7 8 10 11 12
14 14 13 13 12 13 12 11 11 11 14 13 14 14 11 12 12 11 9 8 7 6 6 6 6 5 5 4 5 6 6 6 6 5 5 6 7 6 7 8 9 10 11 12
14 14 14 14 14 13 13 13 12 13 16 17 15 16 11 12 11 11 11 9 8 8 8 8 8 8 7 7 7 7 7 7 7 6 5 7 8 8 7 9 10 10 11 12
16 15 15 15 14 14 14 14 18 22 21 20 16 18 15 12 11 11 12 10 9 9 8 9 9 10 9 9 8 8 8 8 8 7 6 6 8 9 8 9 10 11 12 13
17 17 16 16 16 16 15 16 16 14 25 21 21 19 15 12 12 11 12 11 10 10 10 10 11 11 10 9 9 9 9 8 8 8 7 7 8 10 10 9 11 12 12 13
19 17 17 16 16 16 17 16 18 12 17 19 19 18 11 10 10 10 10 10 9 11 12 13 13 14 14 13 12 11 9 8 9 9 8 8 8 9 11 11 11 12 13 14
21 19 18 17 16 16 18 18 19 21 25 28 20 15 12 12 12 12 12 10 11 11 12 13 14 14 14 15 14 13 13 11 9 9 10 9 9 9 10 12 11 12 13 15
21 21 20 19 18 18 19 19 20 23 20 18 19 17 16 13 12 12 13 12 12 13 14 14 14 14 14 15 15 15 14 13 11 10 10 10 9 9 10 12 12 12 14 15
23 23 23 22 21 21 20 20 23 24 29 27 25 19 13 13 11 11 12 13 14 15 15 15 15 15 14 14 14 14 14 14 13 11 10 10 10 10 10 10 13 12 13 15
25 26 26 24 24 23 21 21 23 32 22 34 39 27 13 13 13 13 14 15 15 16 16 16 16 17 17 16 14 14 14 13 14 13 11 10 11 10 10 10 12 13 13 15
27 28 30 27 27 26 25 25 25 30 33 34 35 22 14 16 16 15 16 15 16 14 15 15 14 13 14 15 16 16 15 15 14 14 13 11 11 11 10 11 11 13 14 14
28 30 30 32 26 29 28 28 29 29 41 33 30 18 16 16 17 17 17 16 14 14 14 13 13 13 13 14 15 16 17 17 16 15 14 13 11 11 11 10 11 13 15 15
29 30 31 31 30 31 30 30 32 33 27 28 21 24 19 18 18 17 16 16 14 14 14 14 14 14 14 14 14 15 16 18 17 16 15 14 12 11 12 12 11 12 14 15
33 33 33 32 33 35 34 32 33 32 30 29 26 24 18 19 19 17 17 18 15 15 15 15 15 14 14 14 14 15 15 17 17 17 16 15 13 12 12 13 13 12 13 15
35 37 39 39 36 37 39 35 34 35 33 30 31 24 21 20 20 19 19 19 18 16 15 15 15 15 15 14 15 14 15 16 16 17 17 16 15 14 13 12 13 14 13 13
39 39 44 46 41 48 33 33 35 35 33 31 30 26 24 23 22 20 19 19 19 18 17 17 16 17 17 17 16 16 16 17 17 16 18 19 17 15 16 15 12 13 13 13
40 42 47 51 50 41 36 35 37 37 33 32 31 27 25 24 23 20 19 19 20 20 21 19 20 20 20 20 20 19 19 19 19 19 19 18 20 18 16 18 16 12 13 13
46 45 50 58 57 52 38 36 39 37 34 30 29 28 27 26 27 25 21 21 22 23 26 27 25 24 24 23 24 24 24 24 22 21 20 20 20 20 21 19 20 19 16 15
53 54 53 55 61 49 42 42 41 42 38 32 31 30 30 30 27 25 25 25 26 28 30 30 29 28 28 28 28 27 28 28 27 27 25 22 22 23 22 21 23 21 21 21
50 56 60 62 66 53 45 46 46 42 36 35 34 31 30 30 30 29 30 31 31 32 34 34 34 33 34 33 31 30 31 30 29 29 30 30 27 25 26 25 23 25 23 24
50 49 59 56 50 45 46 47 44 42 42 39 36 35 34 35 33 32 33 34 35 37 39 39 39 40 41 39 37 34 32 32 32 30 29 29 32 31 29 28 26 24 23 25
52 52 53 52 44 48 47 50 49 48 43 41 40 39 40 38 37 36 37 37 39 41 41 42 44 45 45 43 42 41 39 35 31 30 29 29 29 32 32 32 30 29 28 25
52 54 52 50 47 47 49 52 54 52 49 47 44 44 44 43 42 41 42 42 43 43 44 48 50 50 51 51 46 40 37 34 28 26 26 25 26 28 31 33 33 33 33 32
51 51 53 47 51 50 49 53 56 55 58 56 53 49 48 47 47 46 46 47 48 47 49 52 53 52 52 51 48 41 35 30 27 25 25 25 25 25 25 28 32 34 34 33

GFSCGP_prec_cthk_303.txt.gz
RH
13 13 15 14 13 12 11 12 12 12 13 16 16 15 11 10 9 7 6 6 6 6 6 5 6 6 6 5 5 5 4 4 4 4 4 5 4 5 6 7 8 9 10 10
13 14 13 13 13 11 10 11 11 11 12 13 13 13 12 12 11 9 7 6 5 5 5 5 5 5 5 5 5 5 5 5 4 4 4 5 6 5 6 7 8 9 10 11
14 14 13 13 13 11 11 11 10 11 10 11 13 11 10 11 12 10 9 8 7 6 6 6 6 5 6 6 6 6 6 6 6 5 5 5 6 7 6 7 9 9 10 11
14 14 13 13 13 13 13 12 12 11 13 11 12 10 10 9 10 10 9 9 8 7 7 7 8 7 7 6 7 7 7 7 7 7 6 6 6 7 8 8 9 10 11 11
14 14 14 15 14 13 14 14 14 15 17 17 14 14 8 10 9 9 9 9 9 8 8 8 9 9 9 9 8 7 7 7 8 8 7 7 6 7 9 9 9 10 11 12
16 15 15 15 15 15 15 15 18 22 21 17 17 18 14 10 10 10 10 9 8 9 9 9 9 10 10 11 10 9 9 8 8 8 8 7 7 7 8 10 10 10 12 12
17 17 16 15 16 16 16 16 16 13 18 19 21 19 13 12 11 11 11 10 9 9 10 11 11 12 12 12 12 12 12 11 10 9 8 8 8 7 8 9 11 10 11 12
19 18 18 17 17 17 17 16 18 13 16 16 19 19 11 10 10 10 11 10 10 11 11 12 11 12 12 13 13 14 14 13 12 11 10 9 9 9 8 8 10 11 11 12
22 20 19 18 17 17 19 19 19 22 26 25 19 15 11 12 11 12 12 11 12 12 13 13 14 13 12 12 12 13 13 14 13 13 11 10 10 10 9 9 9 11 11 11
22 22 22 21 20 20 21 21 22 24 24 20 19 18 16 13 12 12 12 11 12 13 13 14 14 14 14 14 14 14 13 13 13 12 13 12 11 11 10 10 9 10 11 11
24 24 24 24 24 24 24 24 26 26 29 25 25 20 15 14 12 13 12 13 14 14 14 14 14 13 13 14 15 15 16 17 16 14 13 13 12 12 11 10 10 10 11 11
26 28 28 27 27 25 24 25 27 34 27 36 37 27 17 16 16 15 14 15 15 15 14 12 12 13 13 12 13 13 14 15 17 18 16 15 13 13 12 11 11 10 10 12
27 29 30 28 28 28 28 28 29 33 35 38 36 27 19 19 18 16 17 16 17 17 14 12 12 12 12 12 13 13 14 14 16 17 19 18 16 14 13 11 11 11 11 11
28 29 29 31 27 30 31 32 33 33 41 37 33 25 24 22 21 19 19 19 19 17 16 16 13 12 12 13 13 13 13 13 15 16 17 18 18 16 15 12 12 12 12 12
30 31 31 30 30 31 32 33 37 38 34 34 29 30 27 25 24 22 21 20 20 18 18 17 15 13 12 13 13 13 14 14 15 15 16 17 18 18 17 14 13 13 13 12
33 34 33 33 33 34 33 34 35 35 36 35 33 32 27 25 24 23 22 22 21 20 19 18 17 15 14 14 14 13 14 14 15 15 16 16 17 18 18 17 15 13 14 16
36 38 38 38 38 37 37 34 35 39 39 37 37 32 29 29 27 26 25 23 21 21 21 20 18 19 18 17 16 16 16 15 16 16 16 16 17 17 18 19 18 16 14 16
40 40 44 43 40 45 32 32 35 38 39 40 37 34 31 29 27 25 23 22 21 22 22 21 21 21 23 24 23 21 19 18 18 18 18 18 18 18 19 18 18 19 18 15
41 44 50 49 47 40 35 33 37 42 40 40 38 35 32 32 30 27 25 24 23 23 23 24 24 26 28 29 27 27 25 25 24 23 22 20 20 20 19 19 20 20 21 21
46 46 50 55 54 49 37 35 40 43 45 38 39 38 37 35 33 32 28 27 26 25 25 26 29 30 32 32 31 31 31 30 29 29 30 28 26 24 22 21 21 22 22 22
52 54 53 53 57 46 38 39 41 48 47 42 41 40 39 37 35 34 32 31 30 30 31 32 33 34 34 35 35 37 38 36 32 31 32 31 31 29 27 26 24 23 23 24
51 58 58 58 62 51 40 43 48 49 48 45 43 41 38 37 37 38 36 34 34 34 34 35 35 37 38 40 41 41 43 42 39 36 32 30 32 32 30 28 28 27 25 25
49 47 54 52 47 43 44 47 49 51 51 49 45 44 42 41 41 41 41 39 38 38 38 39 40 40 40 41 46 48 48 49 47 44 40 37 32 30 30 30 29 29 29 28
49 48 49 50 44 49 49 51 53 55 53 52 49 49 49 47 45 44 46 45 45 45 44 45 45 44 44 44 46 50 50 49 49 49 42 35 32 29 29 29 29 28 30 29
48 50 50 49 48 51 52 54 55 53 55 56 54 53 54 54 52 52 54 52 50 49 49 48 49 48 48 50 52 52 52 49 45 42 36 33 31 31 30 29 29 26 27 30
50 51 55 47 53 58 56 56 58 55 59 59 55 57 60 59 57 58 57 56 53 52 50 51 52 53 54 57 60 57 50 46 43 40 38 35 33 31 31 29 29 30 25 26

GFSCGP_prec_cthk_309.txt.gz
RH
12 13 14 12 11 9 8 8 8 8 9 9 9 9 9 10 11 11 8 8 7 6 6 7 6 6 6 6 7 7 8 8 8 8 7 7 6 6 6 6 6 7 8 9
13 14 12 11 11 11 9 9 10 8 9 9 8 8 8 8 9 9 10 8 8 7 7 8 8 7 6 6 7 7 8 8 7 7 8 9 9 9 8 7 7 7 8 9
13 15 12 12 11 11 10 11 10 10 10 9 9 9 7 8 8 8 8 8 8 8 8 8 9 8 8 8 8 8 8 9 9 9 8 8 9 9 8 7 7 7 7 9
14 13 13 13 13 12 13 12 12 12 12 11 10 9 9 7 7 7 8 7 8 8 8 8 8 8 8 9 9 10 10 10 11 11 10 10 9 8 8 7 7 7 7 7
17 14 14 14 14 13 14 14 14 14 14 13 14 14 11 8 9 8 7 7 7 8 8 8 8 8 8 9 9 9 11 11 11 11 11 11 11 11 10 11 10 8 8 8
15 14 14 15 14 14 14 15 15 16 17 20 15 13 10 11 10 10 9 9 9 8 8 8 8 9 10 11 11 11 12 12 12 12 10 10 11 11 12 12 10 9 9 9
16 15 15 15 16 16 16 17 19 21 20 17 17 14 13 12 12 11 11 10 10 9 10 10 10 11 11 12 12 12 12 13 13 13 13 13 12 11 11 11 11 10 10 9
17 20 17 17 17 18 17 18 20 24 21 18 19 19 17 13 13 12 13 13 12 13 14 13 12 12 12 12 12 13 13 13 13 14 14 14 14 14 14 13 12 11 10 9
17 19 18 18 19 19 20 22 20 22 23 25 20 18 18 16 15 16 16 15 16 15 15 15 14 14 14 14 12 12 13 13 14 14 14 15 15 15 15 14 15 15 13 11
20 22 21 21 21 22 23 23 25 25 34 28 22 23 21 20 20 20 19 18 18 18 18 18 17 17 16 15 14 12 12 13 13 14 15 16 15 15 16 16 15 16 16 15
22 23 26 24 24 24 24 24 24 26 26 30 29 26 23 21 22 22 21 22 21 21 21 21 20 19 18 17 16 15 13 12 12 13 14 15 16 16 17 17 16 16 17 17
24 25 25 25 25 25 24 23 24 28 33 28 29 29 25 23 24 25 25 25 24 23 23 22 22 21 20 18 17 16 14 13 12 13 14 15 16 16 17 18 18 17 17 17
26 26 28 28 28 26 26 25 25 27 29 33 35 31 27 26 28 29 29 28 27 27 26 25 24 23 21 20 19 18 16 14 14 15 16 16 17 17 17 18 18 18 17 17
26 27 27 27 28 27 29 28 27 27 30 32 31 28 31 31 31 31 31 30 29 28 26 25 24 23 22 21 20 19 17 15 16 17 18 17 17 17 17 18 18 17 18 18
27 28 27 28 28 28 29 30 31 31 30 30 29 30 31 31 31 31 30 29 28 27 26 26 25 24 22 22 21 19 18 18 18 19 20 20 19 18 17 18 19 19 18 18
29 29 30 29 29 30 31 31 32 31 31 30 30 31 31 31 29 30 30 31 30 29 28 27 26 25 24 24 22 20 20 20 21 22 22 22 20 19 18 18 19 20 20 19
30 30 31 31 31 32 32 31 32 30 30 31 32 31 31 31 32 34 34 35 33 31 30 29 28 27 26 25 24 23 23 24 26 27 26 25 24 24 22 21 21 22 22 21
31 32 35 36 33 36 26 28 28 28 30 30 31 32 32 32 34 36 37 36 34 34 32 31 29 28 28 26 27 28 28 30 32 32 31 31 31 32 34 32 27 25 26 25
33 35 46 41 37 30 30 29 29 30 28 31 32 34 34 36 37 39 39 39 38 37 35 34 32 30 30 30 31 31 31 32 34 36 36 36 37 38 38 38 39 36 34 31
36 37 40 43 46 41 31 32 32 32 31 33 34 35 37 39 40 43 42 42 40 39 39 38 36 34 33 34 35 36 36 37 38 40 40 39 42 43 45 44 44 43 41 38
43 44 49 47 47 36 32 35 34 37 37 34 35 38 39 42 44 47 46 44 42 41 40 39 39 39 38 40 41 41 43 43 43 44 44 44 45 47 48 51 49 48 47 44
45 52 51 49 50 45 35 37 38 39 39 39 40 40 41 43 46 51 49 46 44 42 41 40 41 42 43 44 46 46 47 46 46 46 46 48 50 52 53 54 53 46 43 41
43 39 47 44 41 38 35 37 40 43 44 44 44 44 44 46 49 52 51 49 47 45 43 43 42 42 45 47 48 48 49 49 48 48 50 52 53 55 57 56 53 49 47 44
43 42 42 44 38 41 41 44 46 48 48 48 47 50 51 51 53 54 53 51 50 47 44 44 44 44 46 48 47 47 48 49 52 53 53 58 61 62 62 60 56 57 57 53
45 47 44 41 42 43 46 49 52 51 50 50 52 52 54 55 55 57 54 53 52 50 49 48 47 49 50 51 49 51 52 53 55 55 56 57 59 61 62 61 65 67 67 63
50 49 49 43 51 50 50 56 53 52 53 54 54 54 58 58 55 55 54 55 54 52 53 52 48 48 52 54 52 55 56 55 54 56 60 60 59 60 60 60 62 67 67 60